Wind_Speed
23 23 24 28 33 37 37 38 40 43 43 42 41 40 38 40 42 43 42 39 39 36 34 33 31 34 35 34 36 38 39 41 46 46 42 37 39 36 35 35 35 48 57
26 30 39 38 38 40 41 42 44 43 42 41 42 43 43 46 46 48 49 49 49 47 45 44 41 37 34 36 38 38 39 39 42 43 39 40 38 35 38 37 41 48 47
40 40 40 42 42 43 44 44 45 44 45 45 46 48 49 50 52 54 54 55 56 56 54 53 51 48 43 37 36 44 43 42 43 42 39 36 38 38 39 35 34 39 33
40 42 42 43 44 46 48 47 47 48 50 51 52 54 55 57 58 60 61 61 61 61 60 59 57 56 51 43 39 39 47 47 45 45 42 36 34 34 37 37 35 29 34
39 40 40 42 45 47 48 50 51 53 54 55 58 60 62 64 66 65 63 63 64 65 64 63 61 60 56 51 46 42 42 48 49 49 48 42 36 35 34 33 35 31 29
38 41 44 46 49 50 52 54 56 58 60 64 67 69 70 69 66 63 63 66 67 67 67 65 62 61 58 55 47 37 39 44 50 54 52 48 42 33 33 36 39 39 39
45 47 50 53 55 57 60 62 63 62 64 63 62 63 64 66 66 65 64 63 64 65 62 63 62 60 58 54 48 44 44 48 50 53 52 51 45 38 36 34 34 39 38
50 51 52 53 56 56 57 58 60 61 63 63 64 64 63 60 53 49 48 48 50 54 57 52 54 55 54 52 48 47 44 49 50 52 55 53 46 35 32 31 35 33 32
48 51 52 54 55 57 58 59 60 63 63 61 57 50 48 47 46 45 41 42 45 47 49 49 53 56 54 50 49 48 47 48 46 50 51 52 47 41 32 29 24 27 27
52 53 54 55 57 59 61 61 58 54 49 48 46 46 44 39 36 35 36 39 43 43 46 48 49 49 48 47 49 47 48 43 42 43 45 45 45 43 35 37 25 24 22
51 53 55 57 59 57 52 50 52 51 50 50 44 37 36 38 39 39 40 44 44 43 42 41 41 43 45 43 38 40 41 36 39 43 42 41 41 40 42 44 28 36 31
53 55 55 50 47 49 47 36 33 35 33 31 35 37 38 37 39 39 40 39 38 37 34 34 34 29 29 30 32 36 36 38 38 35 40 42 43 42 47 38 35 29 30
51 46 45 47 41 31 28 36 41 40 33 34 34 35 36 38 40 36 32 30 28 30 28 25 21 22 22 23 21 23 22 27 36 41 42 40 39 41 40 44 26 21 15
37 25 22 24 28 31 37 38 37 33 34 33 31 30 31 26 23 23 22 23 23 24 17 17 16 19 13 7 8 7 6 9 13 31 39 36 37 34 31 28 23 20 18
21 24 25 30 35 36 36 39 39 37 36 30 26 27 26 22 21 19 15 13 12 12 11 9 14 15 11 11 22 19 23 27 35 34 36 37 34 28 24 19 16 17 20
23 22 26 32 31 32 37 38 31 30 29 31 29 27 25 21 15 15 14 11 10 8 7 10 14 19 29 31 34 35 34 34 23 28 29 30 27 21 17 16 16 15 11
23 20 28 32 32 34 36 34 29 23 24 23 22 20 18 13 17 16 13 9 7 8 7 16 33 31 32 29 33 34 30 26 25 23 22 20 18 16 14 13 12 9 6
22 26 30 29 31 36 32 26 24 22 18 15 13 13 10 17 18 15 11 11 9 10 13 31 40 37 34 34 33 32 28 26 23 20 18 17 15 14 13 13 11 7 4
27 27 26 29 34 32 27 22 20 13 10 10 6 3 14 16 13 16 12 11 12 11 27 42 41 36 31 29 29 27 25 21 17 15 14 14 15 14 12 10 9 6 5
24 25 24 32 37 29 23 19 13 8 6 1 3 9 14 10 10 15 15 12 17 20 26 43 39 34 30 29 28 25 22 18 14 12 10 9 9 7 6 6 5 6 6
22 20 23 29 30 26 18 15 9 5 7 8 7 11 15 14 13 15 14 16 22 24 34 45 38 34 31 26 21 22 19 17 14 11 8 7 6 5 8 7 6 7 7
18 17 22 28 25 24 17 12 9 10 10 8 7 5 7 12 14 16 16 17 18 23 42 39 39 37 33 28 22 21 19 15 12 9 7 6 7 7 8 7 6 7 9
23 17 21 25 23 22 17 15 11 8 9 9 9 10 4 9 15 18 19 15 18 33 43 42 38 32 28 26 24 20 16 13 11 9 7 7 11 11 9 8 8 11 11
26 21 22 26 23 20 18 15 13 11 9 8 6 7 8 17 19 19 19 28 38 43 43 40 35 31 26 22 18 17 14 12 11 10 9 9 10 10 10 10 11 13 13
24 19 20 22 21 19 19 17 16 12 10 8 9 11 17 22 24 26 33 30 34 37 33 34 29 29 22 18 16 14 13 13 14 11 10 9 9 10 12 13 14 15 14
26 25 22 21 20 20 20 20 18 16 13 12 12 17 23 26 27 30 33 30 31 33 27 29 27 26 21 17 16 15 16 16 12 9 8 9 11 13 15 16 18 16 13
Wind_Direction
245 252 263 277 284 288 289 291 295 296 294 291 290 290 290 296 300 299 299 297 293 289 289 288 285 285 281 274 269 270 272 273 272 269 266 259 259 259 255 248 237 235 244
263 272 280 281 284 282 283 286 288 287 286 285 285 287 288 292 295 295 296 297 298 296 295 293 292 289 282 276 271 266 267 269 273 275 269 263 258 254 260 261 254 251 252
268 271 274 275 278 278 279 281 283 282 283 283 283 284 285 288 290 291 292 292 293 293 292 292 293 291 289 283 269 264 260 259 263 267 269 265 261 256 258 258 258 253 246
266 269 272 275 276 276 278 278 278 278 279 278 278 281 283 285 285 287 288 288 288 287 287 287 286 288 290 288 279 268 259 256 255 260 262 260 259 254 254 251 254 252 254
269 270 273 275 276 277 277 277 276 276 275 277 279 280 282 283 284 285 285 284 283 281 279 279 280 282 286 286 283 279 262 252 250 253 256 257 251 253 252 244 241 250 254
275 276 278 279 278 277 277 276 276 276 277 278 278 279 279 279 279 280 279 278 277 276 274 274 274 277 278 281 280 271 264 254 245 246 250 251 252 251 249 249 250 255 251
277 278 278 277 277 278 277 277 279 279 279 280 279 279 279 279 279 279 277 274 272 271 269 270 270 271 273 274 276 273 257 252 246 243 245 244 248 248 250 256 253 255 251
282 281 282 282 282 284 283 281 281 280 281 282 281 281 280 279 278 277 274 274 274 269 267 264 266 265 267 272 273 271 256 251 247 242 241 242 243 245 244 252 258 248 227
286 286 286 286 286 286 287 286 285 284 284 283 282 279 280 279 278 278 275 272 273 272 270 266 263 264 267 271 273 269 255 249 244 241 239 239 236 235 240 230 213 218 225
287 288 289 290 289 289 289 288 287 286 285 284 285 282 280 280 276 271 271 276 275 274 269 263 264 267 269 270 268 260 255 249 241 239 240 238 234 229 224 207 224 218 208
291 291 291 291 290 290 291 290 287 285 283 284 280 281 280 280 275 271 276 272 272 270 266 263 264 263 265 261 253 250 249 248 250 245 238 232 228 222 209 209 231 217 218
293 294 294 292 290 290 292 296 296 293 287 284 279 281 282 278 280 278 279 273 265 263 263 261 261 255 248 246 245 248 259 258 245 229 221 223 216 210 206 223 229 219 206
297 296 294 291 291 293 296 306 299 296 295 290 278 278 282 279 282 278 271 263 259 260 259 259 247 239 239 252 264 255 247 249 241 218 212 204 202 203 209 220 180 202 221
299 298 308 310 307 304 303 297 293 290 296 292 285 287 292 289 278 272 265 266 263 255 246 237 239 227 232 242 164 159 184 143 183 180 174 177 188 203 214 188 183 196 213
308 317 313 317 305 300 302 301 294 296 294 289 290 285 290 281 278 258 257 256 249 226 228 240 235 201 169 154 144 166 138 144 141 146 155 162 168 174 174 172 181 201 216
312 311 321 332 324 309 309 311 303 297 289 281 279 287 288 277 235 222 240 240 213 209 225 240 203 134 131 125 116 115 118 117 121 128 142 156 155 155 168 182 196 207 217
307 311 320 329 336 321 314 311 310 298 295 288 283 280 278 229 196 213 229 208 197 202 208 169 152 143 138 136 135 124 119 118 120 126 134 139 149 159 170 183 192 195 193
312 313 313 324 332 329 325 320 312 309 305 296 285 276 238 193 199 208 210 180 181 205 173 160 143 146 146 145 138 132 131 133 136 142 143 148 154 160 172 179 182 177 175
312 317 315 328 337 337 331 330 325 317 310 309 292 234 175 187 201 205 191 200 194 182 158 163 146 150 150 151 148 150 144 147 150 150 156 166 175 179 178 183 192 189 204
312 318 330 338 341 343 341 338 341 342 334 2 119 174 176 177 163 180 192 192 168 166 163 158 154 156 155 159 159 158 160 160 163 169 178 187 191 194 207 211 205 225 244
330 330 336 346 350 353 351 352 7 47 93 124 116 160 187 200 197 181 181 162 156 155 166 155 160 162 166 167 164 162 173 186 189 189 197 199 203 213 230 236 221 235 247
349 347 351 355 0 9 10 30 61 95 93 96 103 103 187 200 184 175 168 159 162 168 167 164 167 170 171 168 169 176 184 191 200 210 226 231 235 239 242 254 259 255 260
5 14 5 10 10 26 37 49 59 79 84 91 93 92 95 145 150 149 142 143 174 168 171 165 173 174 171 170 175 180 189 201 209 223 234 250 256 260 252 263 274 275 270
16 31 28 22 21 35 44 47 47 69 88 103 115 131 130 135 139 121 129 146 158 162 172 171 174 174 174 179 187 200 210 215 231 244 259 258 262 270 275 280 284 286 270
21 38 33 25 30 39 49 50 44 56 79 91 110 117 126 139 124 122 128 149 159 165 170 173 175 177 180 187 198 209 217 231 242 255 262 268 275 282 288 293 293 288 272
37 38 40 42 37 41 48 54 51 47 55 74 104 129 142 141 133 132 148 154 150 168 171 175 179 183 190 195 203 219 230 239 250 254 251 255 267 279 287 287 288 284 250
Height
3083 3084 3084 3084 3083 3082 3081 3079 3077 3076 3075 3074 3072 3069 3067 3065 3063 3061 3061 3060 3058 3057 3057 3056 3056 3054 3053 3052 3051 3049 3047 3045 3041 3043 3047 3051 3051 3054 3055 3054 3056 3060 3064
3077 3077 3077 3076 3074 3073 3072 3070 3069 3066 3065 3063 3061 3059 3057 3056 3054 3051 3049 3047 3045 3044 3044 3043 3043 3044 3043 3041 3040 3040 3038 3037 3033 3032 3037 3039 3041 3046 3045 3046 3047 3048 3051
3068 3067 3066 3065 3064 3063 3061 3060 3058 3055 3054 3052 3050 3048 3047 3045 3042 3039 3037 3035 3033 3031 3029 3028 3028 3029 3029 3030 3029 3027 3027 3026 3025 3023 3025 3029 3031 3035 3035 3036 3038 3039 3041
3057 3056 3055 3053 3052 3051 3049 3047 3046 3043 3041 3040 3038 3035 3032 3030 3028 3025 3023 3021 3018 3016 3014 3013 3012 3012 3013 3014 3014 3013 3014 3014 3014 3013 3014 3019 3022 3024 3025 3028 3030 3032 3035
3046 3045 3044 3042 3040 3037 3035 3034 3031 3029 3027 3025 3021 3019 3016 3013 3011 3008 3008 3005 3002 2999 2997 2997 2996 2996 2997 2998 2998 2998 2998 2999 3002 3002 3002 3007 3012 3015 3017 3021 3020 3024 3025
3035 3034 3031 3029 3026 3024 3022 3020 3017 3015 3012 3008 3005 3002 2999 2997 2994 2993 2991 2987 2984 2980 2978 2979 2981 2980 2981 2981 2983 2984 2985 2985 2986 2988 2991 2994 3000 3006 3009 3011 3012 3014 3016
3024 3022 3019 3015 3011 3009 3006 3003 3000 2997 2994 2990 2986 2984 2980 2976 2975 2973 2971 2967 2964 2961 2962 2962 2964 2964 2964 2966 2967 2968 2969 2969 2970 2974 2976 2982 2988 2996 2999 3001 3002 3004 3006
3011 3007 3003 3000 2996 2992 2988 2985 2981 2977 2973 2970 2967 2964 2960 2956 2955 2954 2952 2948 2944 2942 2942 2946 2947 2948 2948 2950 2952 2951 2952 2954 2956 2959 2962 2971 2978 2985 2988 2990 2991 2994 2996
2998 2993 2989 2985 2980 2975 2970 2966 2962 2957 2953 2949 2945 2942 2940 2939 2939 2937 2935 2932 2929 2927 2928 2928 2929 2930 2934 2937 2936 2934 2934 2936 2942 2945 2948 2955 2966 2973 2978 2981 2983 2987 2990
2983 2979 2974 2969 2963 2957 2952 2947 2942 2937 2933 2931 2928 2926 2925 2923 2923 2922 2921 2919 2916 2915 2913 2913 2915 2917 2920 2921 2920 2919 2917 2922 2929 2934 2938 2945 2955 2963 2970 2974 2977 2980 2983
2969 2964 2959 2953 2946 2939 2933 2930 2925 2921 2917 2915 2912 2911 2910 2910 2909 2908 2908 2905 2903 2902 2900 2901 2904 2905 2906 2906 2906 2904 2905 2913 2918 2922 2928 2935 2944 2954 2963 2968 2971 2973 2979
2955 2949 2943 2936 2930 2925 2920 2914 2910 2907 2904 2902 2900 2899 2899 2897 2895 2894 2893 2891 2890 2888 2890 2892 2893 2893 2894 2896 2895 2895 2895 2897 2900 2905 2914 2923 2935 2946 2956 2962 2965 2969 2974
2940 2934 2928 2921 2917 2912 2909 2906 2902 2898 2893 2891 2889 2886 2886 2885 2881 2879 2877 2878 2879 2878 2880 2882 2884 2886 2889 2891 2888 2883 2883 2883 2882 2890 2903 2918 2931 2943 2951 2956 2959 2969 2974
2928 2922 2918 2914 2909 2905 2900 2894 2889 2885 2882 2879 2877 2876 2873 2871 2870 2869 2869 2869 2869 2871 2874 2877 2880 2883 2887 2886 2883 2881 2879 2875 2875 2885 2903 2918 2930 2940 2946 2952 2960 2967 2973
2919 2916 2911 2907 2901 2895 2890 2884 2878 2875 2870 2867 2866 2865 2863 2863 2863 2863 2863 2865 2865 2868 2872 2876 2879 2883 2884 2885 2882 2884 2886 2889 2893 2901 2912 2922 2932 2941 2949 2955 2961 2967 2972
2913 2910 2906 2900 2890 2885 2878 2873 2868 2863 2860 2857 2856 2856 2855 2855 2857 2859 2860 2862 2864 2868 2872 2875 2879 2881 2886 2889 2890 2891 2894 2899 2905 2911 2921 2931 2938 2944 2950 2956 2961 2966 2970
2907 2904 2899 2892 2883 2877 2869 2861 2857 2854 2850 2848 2847 2847 2847 2849 2853 2856 2858 2861 2864 2867 2871 2875 2878 2886 2891 2896 2898 2901 2905 2910 2916 2922 2928 2934 2941 2946 2951 2956 2961 2966 2968
2902 2897 2892 2885 2877 2868 2859 2852 2848 2845 2843 2841 2840 2841 2842 2846 2850 2854 2858 2861 2863 2866 2870 2878 2883 2890 2896 2902 2905 2908 2913 2919 2924 2930 2934 2939 2944 2948 2953 2957 2961 2963 2965
2897 2891 2885 2879 2871 2861 2854 2847 2842 2839 2838 2838 2838 2839 2841 2846 2849 2853 2858 2859 2862 2866 2871 2878 2885 2893 2900 2904 2909 2913 2919 2925 2930 2934 2939 2943 2947 2950 2953 2956 2959 2961 2963
2891 2886 2881 2874 2865 2856 2849 2845 2840 2838 2837 2837 2838 2839 2843 2846 2849 2853 2856 2858 2862 2867 2875 2881 2889 2897 2904 2909 2914 2919 2924 2930 2935 2940 2943 2946 2949 2951 2953 2956 2958 2960 2961
2888 2884 2879 2872 2862 2854 2848 2844 2840 2838 2838 2839 2840 2842 2845 2848 2850 2854 2857 2859 2864 2869 2877 2885 2893 2900 2907 2912 2916 2923 2928 2934 2938 2941 2943 2945 2947 2950 2953 2955 2956 2958 2958
2886 2881 2877 2870 2862 2855 2849 2845 2843 2842 2843 2843 2843 2844 2845 2847 2850 2854 2858 2861 2865 2870 2881 2888 2895 2902 2909 2915 2921 2926 2931 2935 2938 2940 2943 2944 2946 2949 2952 2954 2954 2955 2957
2885 2881 2877 2871 2864 2858 2854 2851 2849 2848 2847 2847 2847 2849 2849 2849 2853 2858 2861 2864 2866 2873 2883 2892 2899 2906 2912 2917 2923 2928 2932 2935 2937 2940 2942 2944 2946 2948 2949 2950 2951 2953 2955
2887 2882 2878 2873 2868 2863 2859 2856 2853 2852 2852 2851 2852 2852 2853 2855 2858 2861 2865 2867 2872 2881 2889 2897 2904 2910 2916 2921 2924 2927 2931 2933 2935 2937 2940 2942 2945 2946 2947 2948 2950 2950 2951
2890 2884 2881 2877 2872 2868 2865 2862 2858 2856 2856 2855 2855 2856 2858 2861 2865 2869 2872 2878 2883 2889 2895 2901 2907 2913 2917 2921 2925 2928 2930 2932 2934 2937 2939 2940 2942 2944 2945 2947 2947 2948 2947
2892 2888 2884 2880 2877 2873 2870 2868 2866 2863 2861 2860 2860 2862 2865 2868 2872 2876 2881 2885 2890 2896 2900 2905 2910 2915 2919 2923 2926 2928 2930 2932 2935 2937 2938 2940 2941 2942 2943 2944 2944 2943 2942